Retour au catalogue

CZ-3 R/B

ActifHEO
NORAD 20559·ROCKET BODY·🇨🇳 China

Lancé Apr 7, 1990 depuis Xichang Satellite Launch Center

Loading…

Prochains Passages (prochaines 24 heures)

TLE

FraisSource: Space-Track

Époque: Sep 14, 2026, 18:18 UTC

1 20559U 90030B   26257.76265026  .00052073  00000-0  94924-3 0  9997
2 20559  30.7668 264.9012 3984115  72.7678 326.3342  7.56369017255699

Suivez CZ-3 R/B en temps réel avec AllMySat

Download on the App Store